South Burlington, VT

6:45 PM EDT on July 23, 2016 (GMT -0400)
Burlington International

Weather History for KBTV - March, 2013

Change the Weather History Date:

Wednesday, March 27, 2013

  Actual Average Record
Temperature  
Mean Temperature 41 °F 36 °F  
Max Temperature 50 °F 45 °F 71 °F (1921)
Min Temperature 31 °F 27 °F -1 °F (1923)
Degree Days  
Heating Degree Days 24 29  
Month to date heating degree days 897 941  
Since 1 July heating degree days 5775 6351  
Cooling Degree Days 0 0  
Month to date cooling degree days 0 0  
Year to date cooling degree days 0 0  
Moisture  
Dew Point 26 °F    
Average Humidity 58    
Maximum Humidity 76    
Minimum Humidity 39    
Precipitation  
Precipitation 0.03 in 0.07 in 1.49 in (1913)
Month to date precipitation 1.96 1.91  
Year to date precipitation 4.39 5.73  
Snow  
Snow 0.00 in 0.30 in 1.80 in (1983)
Month to date snowfall 16.2 14.5  
Since 1 July snowfall 81.9 75.3  
Snow Depth 0.00 in    
Sea Level Pressure  
Sea Level Pressure 29.87 in    
Wind  
Wind Speed 7 mph (NNW)    
Max Wind Speed 18 mph    
Max Gust Speed 24 mph    
Visibility 10 miles    
Events Rain    
T = Trace of Precipitation, MM = Missing Value Source: NWS Daily Summary

Daily Weather History Graph

Daily Weather History Graph

Search for Another Location

Airport or City:

Trip Planner

Search our weather history database for the weather conditions in past years. The results will help you decide how hot, cold, wet, or windy it might be!

Date:

Astronomy

Mar. 27, 2013 Rise Set
Actual Time 6:42 AM EDT 7:14 PM EDT
Civil Twilight 6:13 AM EDT 7:43 PM EDT
Nautical Twilight 5:38 AM EDT 8:17 PM EDT
Astronomical Twilight 5:03 AM EDT 8:53 PM EDT
Moon 7:58 PM EDT (3/27) 6:30 AM EDT (3/27)
Length of Visible Light 13h 30m
Length of Day
12h 31m
Full, 100% of the Moon is Illuminated
Mar 27
Full
Apr 3
Last Quarter
Apr 10
New
Apr 18
First Quarter
Apr 25
Full

Hourly Weather History & Observations

Time (EDT) Temp. Windchill Dew Point Humidity Pressure Visibility Wind Dir Wind Speed Gust Speed Precip Events Conditions
12:54 AM 33.1 °F - 23.0 °F 66% 29.81 in 10.0 mi Calm Calm - N/A   Overcast
1:54 AM 36.0 °F 33.3 °F 23.0 °F 59% 29.81 in 10.0 mi SSW 3.5 mph - N/A   Overcast
2:54 AM 36.0 °F 32.1 °F 23.0 °F 59% 29.79 in 10.0 mi South 4.6 mph - N/A   Overcast
3:54 AM 35.1 °F 32.2 °F 23.0 °F 61% 29.79 in 10.0 mi SSE 3.5 mph - N/A   Overcast
4:54 AM 35.1 °F - 23.0 °F 61% 29.79 in 10.0 mi Calm Calm - N/A   Overcast
5:54 AM 32.0 °F 28.7 °F 25.0 °F 75% 29.81 in 10.0 mi ENE 3.5 mph - N/A   Overcast
6:54 AM 32.0 °F - 25.0 °F 75% 29.82 in 10.0 mi Calm Calm - N/A   Mostly Cloudy
7:54 AM 33.1 °F - 26.1 °F 75% 29.84 in 10.0 mi Calm Calm - N/A   Partly Cloudy
8:54 AM 39.0 °F - 25.0 °F 57% 29.85 in 10.0 mi Calm Calm - N/A   Partly Cloudy
9:54 AM 43.0 °F 37.2 °F 24.1 °F 47% 29.85 in 10.0 mi WNW 10.4 mph - N/A   Partly Cloudy
10:54 AM 44.1 °F 40.8 °F 24.1 °F 45% 29.86 in 10.0 mi North 5.8 mph - N/A   Scattered Clouds
11:54 AM 46.9 °F - 26.1 °F 44% 29.85 in 10.0 mi NW 10.4 mph - N/A   Scattered Clouds
12:54 PM 48.0 °F - 25.0 °F 41% 29.85 in 10.0 mi NNW 11.5 mph - N/A   Mostly Cloudy
1:54 PM 48.9 °F - 26.1 °F 41% 29.85 in 10.0 mi North 15.0 mph 20.7 mph N/A   Mostly Cloudy
2:54 PM 48.0 °F - 26.1 °F 42% 29.85 in 10.0 mi North 12.7 mph 21.9 mph N/A   Scattered Clouds
3:54 PM 48.0 °F - 28.0 °F 46% 29.85 in 10.0 mi NW 12.7 mph 17.3 mph N/A   Mostly Cloudy
4:54 PM 45.0 °F 38.9 °F 27.0 °F 49% 29.86 in 10.0 mi North 12.7 mph - N/A   Mostly Cloudy
5:54 PM 44.1 °F 39.0 °F 26.1 °F 49% 29.89 in 10.0 mi North 9.2 mph - N/A   Mostly Cloudy
6:54 PM 43.0 °F 35.4 °F 26.1 °F 51% 29.91 in 10.0 mi North 16.1 mph - N/A   Mostly Cloudy
7:54 PM 41.0 °F 33.9 °F 28.0 °F 60% 29.94 in 10.0 mi North 12.7 mph - N/A   Overcast
8:54 PM 41.0 °F 36.4 °F 28.0 °F 60% 29.95 in 10.0 mi NNW 6.9 mph - N/A   Overcast
9:54 PM 39.0 °F 34.0 °F 30.0 °F 70% 29.96 in 10.0 mi NNE 6.9 mph - 0.00 in Rain Light Rain
10:54 PM 37.0 °F 34.5 °F 30.9 °F 79% 29.96 in 10.0 mi West 3.5 mph - 0.00 in Rain Light Rain
11:05 PM 37.4 °F 34.9 °F 30.2 °F 75% 29.95 in 10.0 mi WNW 3.5 mph - 0.01 in Rain Light Rain
11:54 PM 37.0 °F 33.3 °F 30.9 °F 79% 29.96 in 10.0 mi NW 4.6 mph - 0.02 in Rain Light Rain